Buffalo, NY

3:36 AM EDT on June 29, 2017 (GMT -0400)
Buffalo Niagara International

Weather History for KBUF - January, 2013

Change the Weather History Date:

Wednesday, January 30, 2013

  Actual Average Record
Temperature  
Mean Temperature 57 °F 24 °F  
Max Temperature 66 °F 31 °F 66 °F (2013)
Min Temperature 48 °F 18 °F -3 °F (2003)
Degree Days  
Heating Degree Days 8 41  
Month to date heating degree days 1048 1208  
Since 1 July heating degree days 3209 3623  
Cooling Degree Days 0 0  
Month to date cooling degree days 0 0  
Year to date cooling degree days 0 0  
Growing Degree Days 7 (Base 50)    
Moisture  
Dew Point 50 °F    
Average Humidity 77    
Maximum Humidity 93    
Minimum Humidity 60    
Precipitation  
Precipitation 0.46 in 0.09 in 1.34 in (1969)
Month to date precipitation 2.40 3.09  
Year to date precipitation 2.40 3.09  
Snow  
Snow 0.00 in 0.80 in 11.60 in (1966)
Month to date snowfall 6.1 24.6  
Since 1 July snowfall 28.1 60.8  
Snow Depth 0.00 in    
Sea Level Pressure  
Sea Level Pressure 29.30 in    
Wind  
Wind Speed 19 mph (SSW)    
Max Wind Speed 36 mph    
Max Gust Speed 46 mph    
Visibility 8 miles    
Events Rain    
T = Trace of Precipitation, MM = Missing Value Source: NWS Daily Summary

Daily Weather History Graph

Daily Weather History Graph

Search for Another Location

Airport or City:

Trip Planner

Search our weather history database for the weather conditions in past years. The results will help you decide how hot, cold, wet, or windy it might be!

Date:

Astronomy

Jan. 30, 2013 Rise Set
Actual Time 7:31 AM EST 5:25 PM EST
Civil Twilight 7:01 AM EST 5:55 PM EST
Nautical Twilight 6:27 AM EST 6:29 PM EST
Astronomical Twilight 5:54 AM EST 7:03 PM EST
Moon 9:29 PM EST (1/30) 8:51 AM EST (1/30)
Length of Visible Light 10h 54m
Length of Day
9h 53m
Waning Gibbous, 88% of the Moon is Illuminated
Jan 30
Waning Gibbous
Feb 3
Last Quarter
Feb 10
New
Feb 17
First Quarter
Feb 25
Full

Hourly Weather History & Observations

Time (EST) Temp. Dew Point Humidity Pressure Visibility Wind Dir Wind Speed Gust Speed Precip Events Conditions
12:54 AM 57.0 °F 52.0 °F 83% 29.66 in 8.0 mi South 11.5 mph - 0.05 in Rain Light Rain
1:54 AM 55.0 °F 50.0 °F 83% 29.60 in 10.0 mi SSE 9.2 mph - 0.01 in   Mostly Cloudy
2:54 AM 60.1 °F 51.1 °F 72% 29.56 in 10.0 mi SSW 18.4 mph 26.5 mph N/A   Mostly Cloudy
3:54 AM 61.0 °F 51.1 °F 70% 29.52 in 10.0 mi SSW 20.7 mph 31.1 mph N/A   Mostly Cloudy
4:54 AM 63.0 °F 50.0 °F 63% 29.47 in 10.0 mi SSW 20.7 mph 32.2 mph N/A   Mostly Cloudy
5:54 AM 63.0 °F 50.0 °F 63% 29.42 in 10.0 mi SSW 27.6 mph 38.0 mph N/A   Mostly Cloudy
6:54 AM 64.4 °F 50.0 °F 59% 29.39 in 10.0 mi SSW 29.9 mph 42.6 mph N/A   Mostly Cloudy
7:54 AM 64.9 °F 50.0 °F 58% 29.37 in 10.0 mi SSW 29.9 mph 35.7 mph N/A   Overcast
8:54 AM 64.9 °F 50.0 °F 58% 29.34 in 10.0 mi SSW 31.1 mph 43.7 mph N/A   Overcast
9:54 AM 63.0 °F 53.1 °F 70% 29.32 in 6.0 mi SSW 27.6 mph 43.7 mph 0.00 in Rain Light Rain
10:44 AM 62.6 °F 53.6 °F 72% 29.35 in 2.0 mi WSW 23.0 mph 41.4 mph 0.05 in Rain Heavy Rain
10:48 AM 57.2 °F 51.8 °F 82% 29.36 in 4.0 mi WSW 19.6 mph 41.4 mph 0.06 in Rain Rain
10:54 AM 57.0 °F 52.0 °F 83% 29.37 in 8.0 mi WSW 18.4 mph 38.0 mph 0.07 in Rain Light Rain
11:01 AM 55.4 °F 51.8 °F 88% 29.37 in 6.0 mi SW 21.9 mph 34.5 mph 0.01 in Rain Light Rain
11:10 AM 53.6 °F 51.8 °F 94% 29.36 in 7.0 mi SW 17.3 mph 29.9 mph 0.01 in Rain Light Rain
11:54 AM 57.0 °F 54.0 °F 89% 29.35 in 10.0 mi SSW 18.4 mph - 0.01 in Rain Light Rain
12:54 PM 61.0 °F 53.1 °F 75% 29.26 in 10.0 mi South 19.6 mph 26.5 mph 0.01 in Rain Light Rain
1:54 PM 62.1 °F 52.0 °F 70% 29.26 in 10.0 mi SSW 16.1 mph 27.6 mph 0.00 in   Overcast
2:54 PM 63.0 °F 48.9 °F 60% 29.23 in 10.0 mi South 25.3 mph 36.8 mph N/A   Overcast
3:26 PM 59.0 °F 48.2 °F 67% 29.28 in 10.0 mi West 12.7 mph - N/A   Overcast
3:54 PM 57.0 °F 48.0 °F 72% 29.28 in 10.0 mi West 13.8 mph - N/A   Overcast
4:54 PM 54.0 °F 46.9 °F 77% 29.27 in 10.0 mi WSW 13.8 mph 24.2 mph N/A   Overcast
5:54 PM 51.1 °F 46.0 °F 83% 29.27 in 10.0 mi SW 13.8 mph 20.7 mph N/A   Overcast
6:54 PM 48.0 °F 44.1 °F 86% 29.22 in 10.0 mi SSW 5.8 mph - N/A   Overcast
7:54 PM 53.1 °F 46.9 °F 80% 29.20 in 10.0 mi SW 15.0 mph - N/A   Overcast
8:54 PM 55.9 °F 48.0 °F 75% 29.17 in 10.0 mi SSW 12.7 mph - N/A   Overcast
9:54 PM 57.0 °F 48.9 °F 74% 29.11 in 10.0 mi South 15.0 mph - 0.00 in Rain Light Rain
10:40 PM 53.6 °F 51.8 °F 94% 29.08 in 1.8 mi South 12.7 mph 20.7 mph 0.09 in Rain Heavy Rain
10:50 PM 53.6 °F 51.8 °F 94% 29.08 in 3.0 mi South 10.4 mph - 0.15 in Rain Rain
10:54 PM 54.0 °F 51.1 °F 90% 29.07 in 4.0 mi SW 12.7 mph 20.7 mph 0.16 in Rain Heavy Rain
11:17 PM 53.6 °F 51.8 °F 94% 29.06 in 7.0 mi South 11.5 mph - 0.06 in Rain Light Rain
11:49 PM 51.8 °F 48.2 °F 88% 29.05 in 7.0 mi WSW 17.3 mph 28.8 mph 0.13 in Rain Light Rain
11:52 PM 51.8 °F 48.2 °F 88% 29.05 in 7.0 mi WSW 21.9 mph 28.8 mph 0.13 in Rain Heavy Rain
11:54 PM 51.1 °F 48.0 °F 89% 29.05 in 4.0 mi WSW 21.9 mph 29.9 mph 0.13 in Rain Heavy Rain